GMT,Max TemperatureF,Mean TemperatureF,Min TemperatureF,Max Dew PointF,MeanDew PointF,Min DewpointF,Max Humidity, Mean Humidity, Min Humidity, Max Sea Level PressureIn, Mean Sea Level PressureIn, Min Sea Level PressureIn, Max VisibilityMiles, Mean VisibilityMiles, Min VisibilityMiles, Max Wind SpeedMPH, Mean Wind SpeedMPH, Max Gust SpeedMPH,PrecipitationIn, CloudCover, Events, WindDirDegrees
2013-1-1,48,45,42,48,40,36,93,77,62,30.12,29.89,29.65,19,8,6,21,16,28,0.00,2,Rain,296
2013-1-2,51,48,44,51,47,39,100,90,69,30.44,30.34,30.19,19,5,1,22,12,,0.04,5,Rain,268
2013-1-3,51,50,50,52,49,48,100,96,88,30.74,30.62,30.48,16,6,0,23,16,,0.00,7,Fog-Rain,261
2013-1-4,51,50,48,49,48,46,100,93,83,30.74,30.70,30.66,19,7,6,12,8,,0.00,7,,245
2013-1-5,50,49,48,48,48,46,100,99,92,30.68,30.62,30.57,16,6,1,12,6,,0.02,7,Fog-Rain,214
2013-1-6,46,44,42,49,45,43,100,100,97,30.59,30.50,30.42,7,3,0,9,6,,0.00,6,Fog-Rain,173
2013-1-7,48,46,43,47,46,44,100,95,85,30.44,30.33,30.30,16,7,5,12,8,,0.00,6,,183
2013-1-8,49,48,47,49,48,46,100,98,93,30.33,30.28,30.24,12,7,6,15,12,,0.01,6,Rain,184
2013-1-9,51,50,48,52,50,48,100,100,98,30.26,30.14,30.09,4,1,0,12,6,,0.02,7,Fog-Rain,183
2013-1-10,50,48,46,49,46,42,100,92,72,30.09,30.00,29.92,19,6,0,30,13,41,0.12,4,Rain,275
2013-1-11,50,47,44,48,45,40,100,88,69,30.16,30.08,29.95,19,8,6,22,11,,0.02,3,Rain,233
2013-1-12,48,45,42,45,43,41,100,87,77,29.88,29.73,29.68,19,7,6,21,15,,0.04,4,Rain,196
2013-1-13,43,41,39,43,37,30,100,84,63,30.18,30.04,29.86,19,7,5,15,9,,0.20,4,Rain,16
2013-1-14,45,42,38,43,39,32,100,85,61,30.16,29.93,29.80,19,7,6,26,11,34,0.16,4,Rain,285
2013-1-15,43,40,37,37,35,32,93,77,60,29.92,29.86,29.77,16,6,6,23,16,36,0.00,3,Rain-Hail,342
2013-1-16,40,36,33,37,30,19,87,71,47,30.00,29.82,29.68,6,6,6,17,13,,0.00,2,,101
2013-1-17,41,38,34,32,28,24,75,62,47,30.08,30.00,29.86,19,7,6,21,10,,0.00,1,,168
2013-1-18,38,34,31,38,34,30,100,99,64,29.81,29.44,29.30,12,2,0,28,21,39,0.31,6,Rain-Snow,145
2013-1-19,38,36,34,37,35,34,100,91,78,29.42,29.32,29.27,12,7,5,20,13,,0.00,6,Rain,53
2013-1-20,36,34,32,33,30,27,87,80,64,29.43,29.38,29.30,19,8,6,13,8,,0.00,6,Snow,335
2013-1-21,42,38,34,39,36,30,100,89,75,29.49,29.37,29.24,16,7,4,17,8,,0.20,5,Rain-Snow,199
2013-1-22,43,40,38,41,40,37,100,94,73,29.48,29.38,29.33,19,7,4,15,10,,0.20,6,Rain,122
2013-1-23,45,42,37,43,40,36,100,92,73,29.67,29.62,29.55,19,8,6,23,7,,0.04,5,Rain,230
2013-1-24,42,40,37,41,37,34,100,87,73,30.11,29.96,29.69,19,8,6,10,7,,0.00,5,Rain,63
2013-1-25,41,38,35,41,35,30,100,87,72,30.10,29.90,29.56,16,6,2,24,11,36,0.63,5,Rain,147
2013-1-26,50,44,39,45,42,37,100,82,65,29.97,29.85,29.57,19,8,2,31,19,,0.00,2,Rain,259
2013-1-27,50,47,44,50,42,36,100,80,53,29.72,29.60,29.44,19,7,1,31,23,43,0.02,3,Rain,251
2013-1-28,51,46,40,51,45,37,100,91,72,29.94,29.84,29.77,19,6,1,30,19,43,0.02,4,Rain,219
2013-1-29,53,51,49,54,52,50,100,98,92,29.84,29.79,29.74,7,4,0,29,23,37,0.08,6,Fog-Rain,219
2013-1-30,52,50,48,54,47,43,100,89,72,30.19,29.95,29.68,16,7,2,31,23,43,0.00,3,Rain,252
2013-1-31,51,48,46,50,47,45,100,90,77,30.19,30.06,30.01,16,7,5,30,21,41,0.00,3,,242